Wind_Speed
9 9 10 11 11 12 14 18 18 18 21 19 19 21 22 25 24 24 24 24 24 25 27 28 27 27 26 27 27 26 23 20 18 18 18 19 19 19 19 19 19 19 19 18 18 17 16 16 15
7 7 8 10 10 10 12 15 17 18 17 19 20 21 23 26 23 24 25 26 27 27 28 28 28 28 27 27 27 24 22 20 20 20 21 21 21 21 21 22 22 22 22 21 20 19 18 17 16
7 7 7 10 13 12 17 18 16 14 17 18 19 20 23 24 24 25 26 28 28 28 28 29 29 28 26 25 24 21 22 22 23 24 23 23 23 23 23 23 23 23 23 22 22 20 19 18 17
5 5 8 10 12 15 15 13 13 15 15 16 18 21 23 24 25 25 26 27 28 29 29 30 28 27 26 24 23 23 25 26 27 27 26 25 24 24 24 24 23 23 23 23 22 21 20 19 18
5 5 7 9 10 11 13 12 13 15 15 16 18 20 25 23 26 26 26 28 29 31 30 29 29 27 26 26 26 27 27 28 27 27 27 27 25 24 24 24 24 24 23 23 23 23 22 22 21
7 8 8 9 10 11 13 13 16 17 17 19 19 21 27 26 27 27 28 29 30 31 30 27 28 27 27 28 29 29 29 29 29 29 28 28 27 26 26 26 25 25 25 24 24 25 25 24 24
8 8 10 11 11 12 13 14 17 17 20 20 19 23 30 30 26 28 29 31 31 31 32 31 29 29 29 29 30 30 31 31 30 31 30 30 29 28 27 27 26 26 26 26 26 25 25 25 25
12 12 13 14 14 15 15 17 18 19 21 22 23 25 32 32 27 29 30 32 33 33 33 33 31 29 29 30 30 31 31 30 29 29 29 29 28 28 28 28 28 28 28 28 27 26 25 25 25
12 14 16 16 16 17 17 19 21 22 24 26 27 29 33 32 31 31 32 32 33 32 32 33 32 30 29 28 27 28 27 26 25 25 25 26 26 27 28 29 28 30 30 29 29 28 27 26 26
11 14 15 15 16 17 18 20 23 24 25 29 30 30 33 31 30 31 30 30 30 28 27 29 29 28 27 25 24 23 24 25 26 25 25 26 27 27 28 28 29 29 29 30 30 30 29 28 28
10 12 13 13 14 16 18 20 22 24 26 30 29 29 31 30 27 27 28 28 28 26 25 26 26 25 24 24 24 23 24 24 26 26 27 28 29 30 31 31 32 32 32 32 33 33 33 33 33
9 10 11 11 12 13 15 17 19 23 25 26 26 27 27 27 25 25 26 28 28 27 27 28 28 27 26 26 26 25 25 25 26 27 27 28 29 31 31 32 33 35 36 38 38 38 39 39 39
11 13 14 14 14 15 16 18 21 24 23 24 26 27 26 26 27 29 28 29 30 30 30 31 30 29 29 29 29 30 30 30 31 32 32 32 33 33 34 34 35 35 36 37 38 40 42 43 44
16 17 18 18 18 18 20 24 27 26 24 27 29 29 29 29 29 30 29 29 31 32 32 32 33 33 33 34 34 35 35 36 36 37 38 38 39 39 39 39 38 38 38 39 39 39 40 41 42
19 20 23 21 20 20 23 28 31 27 27 29 30 30 30 30 29 29 29 30 31 32 33 34 36 37 38 39 39 40 40 41 42 43 45 46 46 46 46 45 44 44 43 43 43 43 43 44 44
21 23 26 23 19 21 23 29 31 29 28 28 28 28 27 28 28 29 29 30 32 34 36 38 40 42 44 46 47 48 48 48 49 50 51 52 52 52 52 51 50 50 50 49 49 49 49 49 49
23 22 22 26 21 19 23 27 26 24 25 25 26 26 26 27 29 30 32 35 38 40 43 45 47 48 50 51 53 53 54 54 54 54 55 56 57 57 57 56 56 56 55 55 54 54 54 54 53
20 22 22 23 22 20 21 27 27 23 25 28 30 31 32 34 36 37 39 42 44 45 47 48 50 51 52 54 56 57 57 58 58 59 59 60 60 61 60 60 60 59 59 59 59 59 59 58 57
17 18 19 21 20 21 23 30 33 30 32 35 36 36 38 39 41 42 43 45 46 48 49 50 50 51 53 55 56 57 58 59 60 61 62 63 63 62 62 62 61 61 61 61 61 61 61 61 61
19 20 21 24 26 27 27 31 35 35 35 36 38 40 41 41 42 43 45 46 47 49 52 53 52 52 53 54 55 56 57 58 59 59 60 61 62 62 62 62 62 61 60 60 61 62 62 63 63
22 23 25 27 29 31 34 35 37 37 37 38 41 43 43 43 44 46 48 50 51 53 55 57 59 60 60 61 62 63 63 63 64 65 65 64 64 63 63 63 62 61 61 61 61 62 63 63 63
26 28 30 32 35 36 38 40 41 42 41 42 43 45 45 47 50 53 56 57 58 60 62 65 67 68 70 71 72 73 73 72 71 71 72 71 70 69 69 68 66 64 63 63 63 63 63 63 63
30 32 34 36 37 38 39 40 43 46 47 47 47 50 53 56 60 63 66 67 68 70 72 74 75 76 78 79 80 80 79 78 77 76 76 76 75 73 72 70 68 67 65 64 63 63 63 63 63
34 36 38 40 41 43 44 45 50 52 53 56 58 61 64 67 70 73 74 76 77 79 81 82 83 84 84 84 84 83 81 78 77 75 73 74 76 75 71 69 68 67 65 63 62 62 62 62 63
37 40 42 43 44 43 45 49 53 51 59 64 67 70 72 74 75 76 78 80 81 83 85 85 84 83 82 82 80 78 75 72 70 67 66 66 67 67 66 65 65 64 63 61 60 61 61 62 62
38 40 42 44 45 47 50 53 57 60 64 69 72 75 76 75 76 79 81 83 84 84 84 83 81 78 75 71 68 65 62 60 58 56 56 57 58 57 58 59 60 61 59 57 56 58 59 60 60
41 41 42 44 47 52 55 58 61 63 69 74 77 78 78 78 78 80 81 81 81 80 77 75 71 69 66 63 61 60 61 61 60 58 55 55 55 56 57 56 58 59 56 53 54 56 57 59 60
43 44 46 48 52 55 59 61 61 66 75 80 79 78 79 79 79 79 79 78 74 69 64 61 61 62 64 66 66 66 66 65 63 60 57 55 52 54 54 53 54 54 51 50 49 49 49 48 49
45 47 50 53 56 60 64 64 64 71 76 78 79 78 77 78 77 75 72 66 59 55 55 57 59 61 62 62 60 59 57 56 55 54 54 53 52 52 53 51 50 50 48 45 43 41 41 43 44
46 50 54 58 60 62 65 70 64 71 75 76 74 71 71 70 68 64 57 51 49 50 51 52 54 54 50 46 42 40 38 39 41 44 47 48 47 48 50 50 47 46 45 41 38 37 39 41 44
Wind_Direction
253 246 243 237 231 219 225 232 237 229 226 228 229 233 238 241 246 257 262 266 271 274 277 279 280 281 284 286 285 282 277 275 278 282 282 280 275 270 267 265 265 267 270 271 272 274 277 280 284
265 254 240 225 210 207 233 233 229 228 226 230 234 239 244 248 252 258 265 268 271 274 276 278 279 280 281 281 280 276 270 270 276 280 282 281 278 273 270 268 268 269 271 272 272 273 275 279 282
270 248 228 214 206 194 231 230 228 227 228 236 244 248 253 258 258 261 266 270 272 273 274 274 275 277 278 278 274 267 266 270 275 279 279 278 278 276 273 270 269 270 271 271 271 272 273 276 279
270 252 227 212 217 221 240 236 228 236 242 249 254 258 258 262 265 266 267 270 270 270 271 272 273 276 275 272 268 270 273 277 279 279 278 275 274 273 272 270 268 267 267 267 268 269 271 274 277
268 251 235 221 227 231 240 242 241 246 252 256 260 266 267 265 266 267 267 267 268 268 269 273 275 274 273 271 273 277 278 280 280 279 278 275 273 271 270 269 269 268 267 267 268 269 271 272 272
267 260 252 239 233 237 242 248 251 253 257 259 262 266 268 265 266 268 269 270 271 274 274 273 274 273 275 276 277 278 279 279 279 278 278 278 276 273 271 269 269 269 269 269 270 270 271 271 269
272 266 263 263 260 255 256 260 261 264 265 268 269 268 268 268 272 274 275 276 277 277 276 274 273 274 274 273 275 276 277 277 278 278 278 277 275 273 271 270 269 270 270 269 269 269 271 271 268
272 269 266 263 262 265 267 267 270 272 276 274 270 271 272 277 277 277 278 278 278 277 277 276 274 272 273 276 277 277 277 279 279 278 278 276 275 274 272 271 270 270 269 269 269 267 267 267 266
272 268 267 270 273 273 272 271 272 271 272 273 271 269 270 276 279 278 277 277 277 278 278 277 277 278 278 278 279 279 280 281 282 281 279 277 276 275 274 273 272 270 270 269 269 267 266 265 264
274 272 275 278 276 275 274 272 271 270 269 269 269 272 275 278 278 278 278 278 280 282 281 279 280 282 283 282 281 279 280 282 282 281 280 278 276 275 274 274 273 272 271 269 267 266 266 265 263
284 283 287 287 285 283 283 282 279 276 273 272 276 277 277 279 279 279 281 283 285 288 287 284 282 281 280 279 278 277 277 277 277 277 277 275 275 274 273 272 273 274 274 272 270 268 267 266 265
304 301 301 298 295 296 296 292 288 283 280 283 283 281 280 285 288 285 285 286 287 286 285 282 279 277 276 274 273 272 271 272 273 274 274 274 274 274 273 271 270 270 270 270 270 269 268 268 267
314 311 307 305 305 305 301 295 286 281 291 295 292 293 296 296 292 288 287 286 286 284 283 280 277 274 272 270 269 269 269 269 270 272 272 272 272 272 272 271 269 268 267 267 268 268 268 267 267
311 307 304 304 305 302 296 290 285 292 299 294 294 296 297 293 290 287 285 283 281 280 280 279 278 277 275 272 270 269 269 270 271 272 274 274 274 273 272 271 270 269 267 266 265 265 267 267 266
303 299 296 298 297 290 287 286 289 296 294 294 295 295 292 289 286 284 282 281 280 280 280 279 279 278 277 275 274 273 272 271 271 272 274 275 274 274 274 273 271 270 269 267 265 265 265 266 266
294 294 295 299 296 290 285 285 291 299 298 297 297 295 293 291 289 286 283 281 281 281 282 283 283 282 281 280 279 278 276 275 274 273 273 273 272 272 272 271 270 270 270 268 266 266 265 265 265
297 298 301 306 309 302 295 292 297 302 303 304 303 301 299 294 291 287 284 284 285 285 286 287 286 284 282 280 279 277 277 276 275 273 272 271 271 270 270 269 269 268 268 267 265 265 265 265 264
306 308 308 308 314 313 308 304 304 306 304 303 301 300 298 295 293 290 289 289 289 288 288 287 285 283 281 279 278 276 276 275 274 273 272 271 270 270 269 268 268 267 267 266 265 265 264 263 263
320 319 317 316 317 314 312 307 309 311 307 302 300 299 298 296 295 294 294 293 292 290 290 289 287 284 281 278 277 276 276 275 275 274 274 272 271 270 269 269 268 267 267 267 267 267 266 264 263
334 330 325 322 320 318 314 308 310 312 309 305 302 300 300 300 301 300 299 298 295 293 292 292 291 289 285 282 279 278 277 277 277 277 276 275 273 271 270 269 268 268 268 268 268 267 266 265 264
338 334 330 325 322 319 316 313 312 310 308 306 303 301 301 303 304 303 301 299 296 294 293 294 294 293 291 288 286 284 283 282 281 280 279 277 276 274 273 272 270 269 268 267 266 266 265 265 264
335 332 328 324 321 321 318 314 313 309 311 311 306 302 302 303 304 303 301 299 298 297 296 296 296 295 294 293 291 289 287 285 283 282 281 279 278 275 273 272 271 269 268 266 264 263 263 263 263
332 329 326 323 320 317 316 318 316 313 315 312 309 308 308 306 306 306 305 303 301 300 298 297 296 295 294 293 291 290 289 287 285 282 280 278 276 273 272 271 269 267 265 263 261 261 260 261 261
329 326 324 321 321 323 324 323 316 319 316 314 313 312 310 308 308 308 306 304 302 301 299 298 296 295 294 293 292 290 288 286 283 280 276 274 273 271 269 266 264 263 261 259 257 256 255 256 257
328 326 325 325 327 326 324 319 317 318 316 315 313 310 309 309 310 307 304 302 301 300 299 298 297 296 295 293 291 289 286 283 280 276 272 268 267 266 264 261 260 259 257 255 254 253 252 252 253
329 327 326 326 325 321 322 321 319 316 315 312 309 307 309 310 309 307 306 305 303 302 301 300 298 296 294 291 288 285 282 280 279 276 271 265 261 260 260 259 258 258 256 253 251 252 251 252 253
330 328 326 325 322 321 322 319 315 314 311 307 305 307 310 311 309 307 306 305 304 303 303 302 300 298 296 292 286 281 279 279 278 277 272 266 260 256 257 258 256 255 254 254 256 254 252 253 253
330 328 326 326 324 321 319 317 316 311 305 304 306 309 311 309 308 307 305 304 305 305 305 305 305 303 300 295 289 283 279 276 274 272 268 263 259 253 252 254 253 253 254 256 254 251 251 253 254
332 329 327 325 322 319 316 315 313 305 303 307 310 311 310 308 307 305 304 305 306 307 309 311 312 311 307 301 296 289 283 276 270 265 262 259 255 252 248 248 248 249 251 252 249 247 251 256 257
332 329 326 323 320 317 313 314 311 305 307 310 310 308 305 304 304 306 307 308 310 313 317 319 321 322 319 315 310 304 296 285 274 266 262 258 255 252 249 248 248 248 249 249 248 251 254 256 258
Height
5832 5832 5833 5836 5838 5837 5837 5838 5838 5840 5841 5844 5845 5846 5847 5848 5850 5853 5852 5851 5852 5852 5852 5852 5852 5851 5850 5850 5849 5849 5849 5849 5849 5848 5848 5848 5848 5848 5848 5848 5848 5848 5848 5848 5848 5848 5848 5847 5848
5830 5831 5832 5834 5835 5835 5836 5836 5836 5838 5840 5841 5842 5843 5844 5845 5848 5848 5848 5848 5848 5849 5849 5848 5848 5847 5846 5845 5845 5845 5845 5845 5844 5844 5844 5844 5844 5844 5844 5844 5844 5844 5844 5845 5845 5845 5845 5844 5845
5829 5830 5832 5832 5831 5832 5832 5833 5835 5837 5838 5839 5840 5841 5842 5842 5844 5844 5844 5844 5844 5844 5845 5844 5843 5842 5841 5840 5840 5840 5840 5840 5840 5840 5840 5840 5840 5840 5840 5840 5840 5840 5841 5841 5841 5841 5841 5841 5841
5829 5831 5831 5831 5829 5830 5831 5833 5835 5835 5837 5837 5838 5837 5838 5838 5839 5840 5839 5839 5839 5840 5840 5838 5838 5837 5836 5836 5836 5836 5836 5836 5835 5835 5835 5835 5835 5835 5835 5836 5836 5836 5837 5837 5837 5837 5837 5837 5837
5829 5830 5831 5830 5829 5830 5830 5832 5833 5834 5834 5835 5835 5835 5834 5836 5835 5835 5835 5835 5834 5834 5835 5833 5833 5832 5831 5831 5831 5831 5831 5831 5830 5830 5830 5830 5830 5830 5831 5831 5832 5832 5832 5833 5833 5833 5833 5833 5833
5829 5829 5830 5828 5829 5829 5829 5831 5831 5832 5833 5833 5833 5833 5831 5832 5832 5832 5831 5830 5830 5829 5829 5829 5827 5827 5827 5826 5826 5826 5825 5825 5825 5824 5824 5825 5825 5825 5825 5826 5827 5827 5828 5828 5828 5828 5828 5828 5828
5828 5828 5828 5828 5828 5828 5829 5830 5830 5830 5831 5831 5832 5830 5826 5828 5829 5828 5827 5826 5825 5824 5823 5823 5822 5821 5821 5821 5820 5820 5819 5819 5819 5818 5818 5819 5819 5819 5819 5820 5821 5821 5822 5822 5822 5822 5823 5823 5823
5825 5827 5827 5827 5827 5827 5828 5828 5828 5829 5829 5829 5828 5827 5823 5824 5825 5823 5822 5820 5819 5818 5817 5816 5816 5817 5816 5815 5815 5814 5814 5814 5813 5813 5812 5812 5812 5813 5813 5813 5815 5815 5815 5815 5816 5816 5817 5817 5818
5823 5825 5824 5825 5825 5826 5826 5826 5826 5825 5824 5823 5822 5821 5819 5819 5819 5818 5816 5814 5812 5812 5811 5810 5809 5810 5810 5810 5810 5809 5808 5808 5807 5807 5806 5806 5806 5806 5807 5807 5808 5808 5808 5809 5810 5810 5811 5812 5813
5821 5821 5821 5822 5822 5822 5822 5821 5821 5820 5819 5817 5815 5815 5814 5815 5814 5811 5810 5808 5806 5805 5806 5804 5804 5803 5803 5803 5803 5803 5803 5802 5801 5801 5801 5801 5801 5801 5801 5802 5801 5801 5802 5802 5803 5804 5805 5806 5807
5818 5818 5818 5819 5819 5818 5818 5817 5815 5814 5813 5811 5811 5811 5808 5807 5807 5806 5804 5802 5801 5801 5800 5799 5798 5798 5797 5797 5796 5796 5796 5796 5795 5795 5795 5795 5794 5794 5795 5795 5795 5795 5796 5796 5797 5798 5799 5800 5801
5817 5816 5816 5816 5816 5816 5814 5813 5811 5808 5807 5807 5806 5804 5804 5804 5803 5801 5800 5798 5796 5796 5795 5793 5792 5791 5790 5790 5789 5788 5788 5788 5788 5787 5787 5787 5787 5786 5786 5787 5787 5788 5788 5789 5790 5790 5791 5792 5793
5815 5814 5814 5813 5813 5813 5811 5808 5806 5803 5804 5803 5801 5800 5801 5800 5798 5796 5795 5793 5791 5790 5789 5787 5785 5784 5783 5782 5781 5780 5780 5779 5779 5779 5778 5778 5778 5778 5778 5778 5778 5779 5779 5780 5780 5781 5781 5782 5783
5813 5812 5810 5810 5810 5809 5807 5803 5800 5801 5801 5798 5796 5795 5795 5794 5792 5790 5789 5787 5785 5783 5781 5779 5778 5777 5776 5774 5773 5772 5771 5770 5769 5769 5768 5768 5768 5768 5768 5768 5768 5769 5770 5770 5771 5771 5772 5772 5773
5810 5809 5807 5807 5806 5804 5802 5798 5795 5797 5795 5793 5792 5791 5789 5787 5785 5783 5781 5780 5777 5775 5773 5771 5769 5767 5766 5765 5764 5763 5761 5760 5759 5758 5758 5757 5757 5756 5756 5757 5757 5758 5759 5760 5760 5761 5761 5762 5762
5806 5804 5801 5801 5802 5799 5799 5794 5791 5791 5790 5788 5785 5783 5782 5780 5778 5776 5774 5772 5770 5767 5765 5763 5761 5758 5756 5755 5754 5752 5751 5750 5748 5747 5746 5745 5745 5744 5744 5744 5744 5745 5746 5746 5747 5748 5749 5750 5751
5801 5800 5798 5795 5796 5795 5793 5789 5788 5787 5784 5782 5779 5777 5775 5773 5771 5769 5767 5764 5762 5759 5756 5753 5751 5748 5745 5743 5741 5739 5737 5736 5734 5733 5732 5731 5731 5730 5730 5730 5730 5730 5731 5732 5733 5734 5735 5736 5737
5799 5797 5795 5794 5793 5792 5789 5784 5783 5784 5781 5778 5774 5772 5769 5767 5764 5762 5759 5756 5752 5749 5746 5742 5739 5735 5732 5730 5727 5725 5722 5721 5719 5718 5717 5716 5715 5714 5714 5715 5715 5715 5716 5716 5717 5718 5720 5721 5722
5798 5796 5795 5793 5792 5790 5787 5782 5778 5779 5776 5772 5768 5765 5762 5758 5755 5752 5748 5744 5741 5737 5733 5729 5725 5722 5718 5715 5712 5710 5708 5705 5704 5702 5700 5699 5698 5698 5697 5698 5698 5699 5700 5700 5701 5702 5704 5705 5707
5797 5795 5793 5791 5788 5786 5784 5780 5775 5772 5769 5764 5760 5756 5752 5748 5744 5740 5736 5732 5728 5723 5719 5714 5710 5706 5702 5699 5696 5694 5692 5689 5687 5685 5684 5682 5681 5680 5681 5680 5681 5681 5683 5684 5685 5686 5687 5689 5690
5795 5793 5790 5788 5785 5781 5777 5774 5769 5766 5762 5757 5752 5747 5742 5737 5732 5727 5722 5718 5713 5709 5704 5699 5694 5690 5686 5682 5679 5675 5673 5671 5669 5666 5665 5664 5663 5662 5662 5662 5663 5664 5666 5667 5668 5669 5670 5672 5673
5792 5789 5786 5781 5777 5774 5769 5763 5759 5755 5751 5746 5740 5735 5730 5725 5719 5714 5708 5703 5697 5692 5686 5681 5675 5670 5666 5661 5657 5653 5651 5649 5646 5643 5642 5642 5642 5641 5641 5642 5642 5644 5647 5649 5650 5651 5652 5654 5656
5788 5785 5780 5775 5770 5766 5760 5754 5748 5742 5738 5734 5728 5723 5718 5712 5705 5698 5691 5686 5680 5673 5667 5660 5654 5648 5643 5638 5633 5628 5624 5622 5620 5618 5616 5616 5617 5617 5618 5619 5620 5622 5625 5628 5630 5632 5634 5636 5638
5784 5780 5775 5769 5763 5757 5750 5745 5737 5731 5725 5720 5715 5709 5702 5695 5688 5680 5673 5665 5658 5651 5644 5637 5630 5624 5618 5612 5607 5601 5597 5595 5593 5592 5590 5589 5590 5592 5594 5596 5598 5600 5603 5607 5609 5612 5615 5617 5620
5777 5773 5768 5761 5755 5750 5744 5738 5731 5722 5714 5709 5701 5693 5685 5678 5671 5662 5653 5645 5637 5629 5620 5613 5606 5599 5592 5585 5580 5574 5570 5567 5566 5565 5564 5563 5564 5567 5570 5574 5576 5579 5583 5587 5590 5593 5596 5599 5602
5771 5766 5760 5755 5749 5744 5737 5729 5722 5712 5704 5695 5685 5677 5670 5662 5652 5641 5631 5622 5612 5603 5594 5586 5579 5573 5567 5560 5555 5549 5544 5542 5541 5541 5541 5541 5543 5546 5549 5554 5557 5560 5565 5569 5572 5575 5578 5581 5585
5766 5760 5754 5749 5742 5735 5727 5717 5710 5701 5691 5680 5669 5660 5652 5641 5630 5619 5609 5599 5589 5580 5571 5563 5555 5548 5542 5537 5532 5528 5523 5520 5519 5520 5521 5522 5525 5529 5533 5538 5540 5544 5549 5553 5558 5561 5563 5566 5569
5761 5755 5749 5741 5733 5727 5722 5707 5696 5686 5672 5661 5652 5643 5634 5623 5610 5599 5588 5578 5570 5562 5554 5546 5537 5529 5521 5513 5507 5502 5499 5496 5495 5496 5498 5502 5507 5512 5516 5521 5525 5529 5534 5539 5543 5546 5548 5551 5554
5755 5749 5741 5734 5725 5715 5707 5701 5685 5665 5652 5644 5637 5627 5614 5602 5591 5581 5572 5564 5556 5549 5541 5532 5522 5511 5500 5489 5481 5475 5472 5471 5472 5474 5477 5482 5489 5494 5499 5505 5511 5516 5522 5526 5530 5532 5535 5538 5541
5748 5741 5733 5726 5718 5706 5695 5691 5668 5650 5638 5628 5619 5609 5598 5587 5576 5566 5557 5550 5544 5537 5528 5519 5508 5495 5483 5474 5466 5459 5455 5454 5454 5456 5459 5465 5471 5477 5483 5490 5496 5503 5509 5514 5517 5520 5522 5525 5527